Bellambi Observation History
Time Wind Speed Temp Pressure Rel. Hum Rain
03/02:00pm NNE 8-10 kts 23.3°c n/a 72% 0.0mm
03/01:30pm NNE 8-10 kts 22.8°c n/a 71% 0.0mm
03/01:00pm N 8-10 kts 23.4°c n/a 67% 0.0mm
03/12:30pm NNE 6-8 kts 23.1°c n/a 79% 0.0mm
03/12:00pm NNE 7-10 kts 22.3°c n/a 77% 0.0mm
03/11:30am NNW 3-5 kts 22.8°c n/a 73% 0.0mm
03/11:00am W 2-5 kts 22.7°c n/a 76% 0.0mm
03/10:30am NNW 2-4 kts 23.4°c n/a 66% 0.0mm
03/10:00am NE 4-5 kts 22.1°c n/a 74% 0.0mm
03/09:30am NNE 3-4 kts 21.3°c n/a 77% 0.0mm
03/09:00am NE 4-5 kts 21.4°c n/a 78% 3.6mm
03/08:30am NNW 3-5 kts 20.4°c n/a 76% 3.6mm
03/08:00am N 5-6 kts 19.6°c n/a 80% 3.6mm
03/07:30am NW 5-8 kts 18.6°c n/a 82% 3.6mm
03/07:00am WNW 7-11 kts 18.4°c n/a 82% 3.6mm
03/06:30am WSW 2-5 kts 17.7°c n/a 82% 3.6mm
03/06:00am W 5-6 kts 18.0°c n/a 83% 3.6mm
03/05:30am WNW 8-10 kts 18.3°c n/a 81% 3.6mm
03/05:00am NW 9-11 kts 18.4°c n/a 83% 3.6mm
03/04:30am NW 8-10 kts 18.6°c n/a 82% 3.6mm
03/04:00am NW 8-10 kts 19.0°c n/a 81% 3.6mm
03/03:30am NW 5-8 kts 19.0°c n/a 83% 3.6mm
03/03:00am WNW 4-10 kts 19.2°c n/a 82% 3.6mm
03/02:30am WNW 2-4 kts 19.2°c n/a 85% 3.6mm
03/02:00am WNW 1-4 kts 19.4°c n/a 84% 3.6mm
03/01:30am WNW 3-6 kts 19.6°c n/a 83% 3.6mm
03/01:00am W 5-8 kts 19.5°c n/a 84% 3.6mm
03/12:30am W 5-6 kts 19.5°c n/a 85% 3.6mm
03/12:00am WNW 5-7 kts 20.1°c n/a 83% 3.6mm
Time Wind Speed Temp Pressure Rel. Hum Rain
02/11:30pm N 7-10 kts 20.5°c n/a 82% 3.6mm
02/11:00pm N 6-9 kts 20.6°c n/a 82% 3.6mm
02/10:30pm NW 6-9 kts 20.8°c n/a 82% 3.6mm
02/10:00pm N 5-8 kts 20.8°c n/a 83% 3.6mm
02/09:30pm N 10-13 kts 20.7°c n/a 83% 3.6mm
02/09:00pm N 10-14 kts 20.8°c n/a 82% 3.6mm
02/08:30pm N 11-17 kts 20.9°c n/a 83% 3.6mm
02/08:00pm N 11-15 kts 20.8°c n/a 84% 3.6mm
02/07:30pm N 12-17 kts 20.9°c n/a 84% 3.6mm
02/07:00pm NNE 12-16 kts 20.9°c n/a 88% 3.6mm
02/06:30pm NNE 12-16 kts 20.8°c n/a 86% 3.4mm
02/06:00pm NNE 14-20 kts 21.0°c n/a 85% 3.4mm
02/05:30pm N 16-20 kts 20.9°c n/a 87% 3.2mm
02/05:00pm NNE 13-17 kts 20.7°c n/a 91% 2.6mm
02/04:30pm NNE 13-16 kts 20.7°c n/a 90% 2.4mm
02/04:00pm NE 12-14 kts 20.6°c n/a 89% 2.4mm
02/03:30pm NE 10-12 kts 20.9°c n/a 87% 1.6mm
02/03:00pm N 5-7 kts 21.2°c n/a 84% 0.8mm
02/02:30pm N 8-10 kts 21.7°c n/a 84% 0.0mm
02/02:00pm NNE 10-13 kts 21.6°c n/a 85% 0.0mm
02/01:30pm NE 11-13 kts 21.6°c n/a 83% 0.0mm
02/01:00pm NE 8-10 kts 22.4°c n/a 79% 0.0mm
02/12:30pm NNE 9-12 kts 22.5°c n/a 75% 0.0mm
02/12:00pm NNE 9-11 kts 23.6°c n/a 78% 0.0mm
02/11:30am NNE 11-14 kts 22.2°c n/a 74% 0.0mm
02/11:00am NNE 11-14 kts 22.2°c n/a 77% 0.0mm
02/10:30am NNE 9-12 kts 22.1°c n/a 80% 0.0mm
02/10:00am N 10-14 kts 21.5°c n/a 77% 0.0mm
02/09:30am N 12-15 kts 21.3°c n/a 80% 0.0mm
02/09:00am NNE 15-20 kts 21.5°c n/a 80% 14.6mm
02/08:30am N 11-15 kts 21.3°c n/a 82% 14.6mm
02/08:00am N 8-11 kts 20.5°c n/a 84% 14.6mm
02/07:30am N 9-12 kts 20.6°c n/a 87% 14.6mm
02/07:00am NNE 9-12 kts 20.7°c n/a 87% 14.6mm
02/06:30am NNE 8-11 kts 20.6°c n/a 87% 14.6mm
02/06:00am NNE 7-9 kts 20.5°c n/a 87% 14.6mm
02/05:30am NNE 7-8 kts 20.8°c n/a 88% 14.6mm
02/05:00am N 8-11 kts 20.9°c n/a 84% 14.6mm
02/04:30am N 9-12 kts 20.8°c n/a 85% 14.6mm
02/04:00am N 7-8 kts 20.6°c n/a 85% 14.6mm
02/03:30am N 9-11 kts 20.9°c n/a 85% 14.6mm
02/03:00am N 9-11 kts 20.8°c n/a 85% 14.6mm
02/02:30am N 9-12 kts 21.0°c n/a 86% 14.6mm
02/02:00am N 10-12 kts 21.1°c n/a 86% 14.6mm
02/01:30am N 9-11 kts 21.1°c n/a 87% 14.6mm
02/01:00am NNE 8-10 kts 21.1°c n/a 90% 14.6mm
02/12:30am NNE 11-14 kts 21.2°c n/a 90% 14.6mm
02/12:00am N 8-9 kts 21.3°c n/a 91% 14.6mm
Time Wind Speed Temp Pressure Rel. Hum Rain
01/11:30pm NNE 10-13 kts 21.2°c n/a 91% 14.6mm
01/11:00pm NNE 11-16 kts 21.2°c n/a 90% 14.6mm
01/10:30pm N 6-9 kts 20.9°c n/a 90% 14.4mm
01/10:00pm N 7-9 kts 21.0°c n/a 92% 14.4mm
01/09:30pm NNW 1-4 kts 20.6°c n/a 91% 14.4mm
01/09:00pm NW 3-5 kts 20.6°c n/a 91% 14.4mm
01/08:30pm NW 3-4 kts 20.1°c n/a 91% 14.4mm
01/08:00pm W 2-5 kts 19.9°c n/a 91% 14.4mm
01/07:30pm W 4-5 kts 20.0°c n/a 91% 14.4mm
01/07:00pm W 4-5 kts 19.8°c n/a 91% 14.4mm
01/06:30pm W 3-4 kts 19.7°c n/a 90% 14.4mm
01/06:00pm W 4-5 kts 19.9°c n/a 90% 14.4mm
01/05:30pm W 4-6 kts 20.0°c n/a 90% 14.4mm
01/05:00pm CALM 0-4 kts 19.8°c n/a 90% 14.4mm
01/04:30pm W 3-6 kts 19.4°c n/a 91% 14.2mm
01/04:00pm NW 9-11 kts 19.1°c n/a 91% 12.6mm
01/03:30pm NW 13-18 kts 19.5°c n/a 90% 9.0mm
01/03:00pm NW 11-16 kts 19.6°c n/a 90% 5.4mm
01/02:49pm N 10-13 kts 20.4°c n/a 90% 4.2mm
01/02:35pm NNW 6-13 kts 20.5°c n/a 87% 2.4mm
01/02:30pm NW 5-7 kts 20.9°c n/a 87% 1.2mm
01/02:00pm ENE 9-11 kts 21.8°c n/a 85% 0.6mm
01/01:30pm ENE 7-11 kts 21.7°c n/a 84% 0.6mm
01/01:00pm NE 8-9 kts 22.3°c n/a 86% 0.6mm
01/12:30pm NE 7-8 kts 22.3°c n/a 85% 0.6mm
01/12:00pm N 5-7 kts 22.5°c n/a 86% 0.6mm
01/11:30am NE 6-8 kts 22.0°c n/a 88% 0.6mm
01/11:00am N 3 kts 22.0°c n/a 85% 0.2mm
01/10:30am NNW 3-4 kts 22.1°c n/a 86% 0.2mm
01/10:00am NW 4-5 kts 21.6°c n/a 87% 0.2mm
01/09:30am N 5-6 kts 21.3°c n/a 88% 0.2mm
01/09:00am ENE 7-9 kts 21.6°c n/a 88% 0.6mm
01/08:30am ENE 6-9 kts 21.2°c n/a 87% 0.4mm
01/08:00am NW 1-4 kts 20.7°c n/a 88% 0.4mm
01/07:30am WNW 4-7 kts 20.3°c n/a 89% 0.4mm
01/07:00am WNW 4 kts 20.2°c n/a 88% 0.4mm
01/06:30am NW 5-7 kts 20.4°c n/a 88% 0.4mm
01/06:00am NNW 6-7 kts 20.3°c n/a 89% 0.0mm
01/05:30am NW 4-7 kts 20.5°c n/a 87% 0.0mm
01/05:00am NW 6-9 kts 20.8°c n/a 85% 0.0mm
01/04:30am ENE 8-10 kts 21.1°c n/a 85% 0.0mm
01/04:00am ENE 10-12 kts 21.1°c n/a 86% 0.0mm
01/03:30am ENE 11-12 kts 21.1°c n/a 84% 0.0mm
01/03:00am E 9-11 kts 21.3°c n/a 84% 0.0mm
01/02:30am E 10-12 kts 21.1°c n/a 84% 0.0mm
01/02:00am E 10-11 kts 21.2°c n/a 83% 0.0mm
01/01:30am E 9-11 kts 21.2°c n/a 83% 0.0mm
01/01:00am E 11-12 kts 21.1°c n/a 83% 0.0mm
01/12:30am E 9-11 kts 21.3°c n/a 84% 0.0mm
01/12:00am E 10-12 kts 21.3°c n/a 82% 0.0mm